Change the Weather History Date:

Monday, March 26, 2012

  Actual Average Record
Temperature  
Mean Temperature 65 °F 56 °F  
Max Temperature 81 °F 69 °F 83 °F (1956)
Min Temperature 48 °F 43 °F 19 °F (1955)
Growing Degree Days 14 (Base 50)    
Moisture  
Dew Point 53 °F    
Average Humidity 73    
Maximum Humidity 100    
Minimum Humidity 45    
Precipitation  
Precipitation 0.00 in 0.18 in 2.08 in (1967)
Month to date precipitation 5.27 3.69  
Year to date precipitation 10.04 10.69  
Snow  
Snow 0.00 in - - ()
Month to date snowfall 0.0  
Since 1 July snowfall 2.3  
Snow Depth 0.00 in    
Sea Level Pressure  
Sea Level Pressure 30.03 in    
Wind  
Wind Speed 3 mph (ENE)    
Max Wind Speed 13 mph    
Max Gust Speed 17 mph    
Visibility 5 miles    
Events Fog    
T = Trace of Precipitation, MM = Missing Value Source: NWS Daily Summary

Daily Weather History Graph

Daily Weather History Graph

Search for Another Location

Airport or City:

Trip Planner

Search our weather history database for the weather conditions in past years. The results will help you decide how hot, cold, wet, or windy it might be!

Date:

Astronomy

Mar. 26, 2012 Rise Set
Actual Time 7:12 AM CDT 7:34 PM CDT
Civil Twilight 6:47 AM CDT 7:59 PM CDT
Nautical Twilight 6:18 AM CDT 8:28 PM CDT
Astronomical Twilight 5:48 AM CDT 8:58 PM CDT
Moon 9:14 AM CDT (3/26) 11:32 PM CDT (3/26)
Length of Visible Light 13h 11m
Length of Day
12h 21m
Waxing Crescent, 15% of the Moon is Illuminated
Mar 26
Waxing Crescent
Mar 30
First Quarter
Apr 6
Full
Apr 13
Last Quarter
Apr 21
New

Hourly Weather History & Observations

Time (CDT) Temp. Heat Index Dew Point Humidity Pressure Visibility Wind Dir Wind Speed Gust Speed Precip Events Conditions
12:38 AM 53.6 °F - 53.6 °F 100% 30.03 in 1.8 mi Calm Calm - N/A   Clear
12:46 AM 53.6 °F - 53.6 °F 100% 30.03 in 3.0 mi Calm Calm - N/A   Clear
12:53 AM 54.0 °F - 53.1 °F 97% 30.02 in 5.0 mi Calm Calm - N/A   Clear
1:28 AM 53.6 °F - 51.8 °F 94% 30.03 in 2.0 mi Calm Calm - N/A   Clear
1:53 AM 53.1 °F - 53.1 °F 100% 30.02 in 2.5 mi Calm Calm - N/A   Clear
2:01 AM 51.8 °F - 51.8 °F 100% 30.03 in 1.2 mi Calm Calm - N/A   Clear
2:14 AM 51.8 °F - 51.8 °F 100% 30.03 in 3.0 mi Calm Calm - N/A   Clear
2:53 AM 52.0 °F - 51.1 °F 97% 30.02 in 4.0 mi Calm Calm - N/A   Clear
3:00 AM 51.8 °F - 51.8 °F 100% 30.03 in 1.8 mi Calm Calm - N/A   Clear
3:11 AM 51.8 °F - 51.8 °F 100% 30.03 in 3.0 mi Calm Calm - N/A   Clear
3:23 AM 51.8 °F - 51.8 °F 100% 30.02 in 1.8 mi Calm Calm - N/A   Clear
3:34 AM 51.8 °F - 51.8 °F 100% 30.02 in 0.8 mi Calm Calm - N/A   Clear
3:53 AM 51.1 °F - 51.1 °F 100% 30.01 in 0.8 mi Calm Calm - N/A   Clear
4:34 AM 50.0 °F - 50.0 °F 100% 30.02 in 1.2 mi Calm Calm - N/A   Clear
4:51 AM 51.8 °F - 50.0 °F 94% 30.02 in 0.8 mi Calm Calm - N/A   Clear
4:53 AM 51.1 °F - 50.0 °F 96% 30.01 in 0.8 mi Calm Calm - N/A   Clear
4:59 AM 50.0 °F - 50.0 °F 100% 30.02 in 2.5 mi Calm Calm - N/A   Clear
5:10 AM 50.0 °F - 48.2 °F 94% 30.02 in 1.2 mi Calm Calm - N/A   Clear
5:18 AM 50.0 °F - 48.2 °F 94% 30.02 in 3.0 mi Calm Calm - N/A   Clear
5:45 AM 50.0 °F - 48.2 °F 94% 30.03 in 1.8 mi Calm Calm - N/A   Clear
5:53 AM 48.9 °F - 48.9 °F 100% 30.02 in 0.8 mi Calm Calm - N/A   Clear
5:59 AM 50.0 °F - 48.2 °F 94% 30.03 in 2.0 mi Calm Calm - N/A   Clear
6:07 AM 50.0 °F - 48.2 °F 94% 30.03 in 4.0 mi Calm Calm - N/A   Clear
6:39 AM 48.2 °F - 48.2 °F 100% 30.05 in 1.8 mi Calm Calm - N/A   Clear
6:49 AM 48.2 °F - 48.2 °F 100% 30.06 in 0.5 mi Calm Calm - N/A Fog Fog
6:53 AM 48.9 °F - 48.9 °F 100% 30.05 in 0.5 mi Calm Calm - N/A Fog Fog
7:11 AM 48.2 °F - 48.2 °F 100% 30.06 in 0.2 mi Calm Calm - N/A Fog Fog
7:21 AM 48.2 °F - 48.2 °F 100% 30.07 in 0.5 mi Calm Calm - N/A Fog Fog
7:28 AM 48.2 °F - 48.2 °F 100% 30.07 in 2.0 mi Calm Calm - N/A   Clear
7:53 AM 50.0 °F - 50.0 °F 100% 30.07 in 7.0 mi Calm Calm - N/A   Clear
8:53 AM 57.0 °F - 55.0 °F 93% 30.09 in 10.0 mi Calm Calm - N/A   Clear
9:53 AM 66.0 °F - 57.0 °F 73% 30.10 in 10.0 mi NNE 3.5 mph - N/A   Clear
10:53 AM 72.0 °F - 57.9 °F 61% 30.10 in 10.0 mi Calm Calm - N/A   Clear
11:53 AM 75.9 °F - 59.0 °F 56% 30.09 in 10.0 mi NNE 3.5 mph - N/A   Clear
12:53 PM 77.0 °F - 60.1 °F 56% 30.08 in 10.0 mi NNE 6.9 mph - N/A   Clear
1:53 PM 79.0 °F - 55.9 °F 45% 30.06 in 10.0 mi SSE 9.2 mph - N/A   Clear
2:53 PM 80.1 °F 80.6 °F 57.9 °F 47% 30.03 in 10.0 mi ENE 5.8 mph - N/A   Clear
3:53 PM 81.0 °F 81.1 °F 57.9 °F 45% 30.01 in 10.0 mi ENE 6.9 mph - N/A   Clear
4:53 PM 81.0 °F 81.0 °F 57.0 °F 44% 29.99 in 10.0 mi Variable 5.8 mph - N/A   Clear
5:53 PM 80.1 °F 80.6 °F 57.9 °F 47% 29.98 in 10.0 mi East 6.9 mph - N/A   Clear
6:53 PM 78.1 °F - 55.9 °F 46% 29.98 in 10.0 mi East 5.8 mph - N/A   Clear
7:53 PM 75.0 °F - 55.9 °F 51% 29.99 in 10.0 mi East 3.5 mph - N/A   Clear
8:53 PM 64.9 °F - 57.9 °F 78% 29.99 in 10.0 mi NE 3.5 mph - N/A   Clear
9:53 PM 61.0 °F - 57.9 °F 90% 30.01 in 10.0 mi NE 3.5 mph - N/A   Clear
10:53 PM 61.0 °F - 57.0 °F 87% 30.01 in 10.0 mi NNE 4.6 mph - N/A   Clear
11:53 PM 57.9 °F - 57.0 °F 97% 30.01 in 10.0 mi Calm Calm - N/A   Clear